#timestamp,LO_Frequency,Hit,StdDev 
1513393215.8,286046990.1,N
1513393235.6,286046990.1,N
1513393255.4,286046996.3,N
1513393275.3,286046992.5,N
1513393295.1,286046993.3,N
1513393296.0,286046993.3,N
1513393315.8,286046992.7,N
1513393335.7,286046990.9,Y
1513393355.5,286046999.0,P
1513393375.3,286046996.7,N
1513393395.2,286046996.7,N
1513393415.9,286046998.1,N
1513393435.7,286047003.2,N
1513393455.6,286047004.2,N
1513393475.4,286047005.6,N
1513393495.2,286047003.6,N
1513393515.0,286047003.2,N
1513393516.0,286047003.2,N
1513393535.8,286047003.3,N
1513393555.6,286046998.5,N
1513393575.4,286047004.3,N
1513393595.3,286047002.9,N
1513393615.1,286047006.7,N
1513393635.8,286047006.5,N
1513393655.7,286047007.6,N
1513393675.5,286047003.9,N
1513393695.3,286047004.0,N
1513393715.2,286047003.0,N
1513393735.9,286047003.2,N
1513393755.7,286047006.1,N
1513393775.6,286047006.5,N
1513393795.4,286047005.1,N
1513393815.2,286047003.3,N
1513393835.0,286047003.1,N
1513393836.0,286047003.1,N
1513393855.8,286047005.7,N
1513393875.6,286047003.1,N
1513393895.4,286047006.8,N
1513393915.3,286047006.8,N
1513393935.1,286047007.0,N
1513393955.8,286047004.9,N
1513393975.7,286047003.3,N
1513393995.5,286047004.8,N
1513394015.3,286047006.0,Y
1513394035.2,286046996.7,P
1513394055.9,286046996.8,N
1513394075.7,286046997.9,N
1513394095.6,286046992.4,N
1513394115.4,286046992.4,N
1513394135.2,286046994.8,N
1513394155.1,286046995.1,N
1513394156.0,286046995.1,N
1513394175.8,286047000.4,N
1513394195.6,286046997.3,N
1513394215.4,286046996.5,N
1513394235.3,286046996.8,N
1513394255.1,286047000.2,N
1513394275.8,286047000.1,N
1513394295.7,286047002.0,N
1513394315.5,286047002.1,N
1513394335.3,286047003.2,N
1513394355.2,286047001.8,N
1513394375.9,286047002.5,N
1513394395.7,286047004.4,N
1513394415.6,286047004.4,N
1513394435.4,286047003.4,N
1513394455.2,286047003.3,N
1513394475.0,286047009.9,N
1513394476.0,286047009.9,N
1513394495.8,286047015.6,Y
1513394515.6,286047016.0,P
1513394535.5,286047017.1,N
1513394555.3,286047013.3,N
1513394575.1,286047014.6,N
1513394595.8,286047017.2,N
1513394615.7,286047016.7,N
1513394635.5,286047015.7,N
1513394655.3,286047016.4,Y
1513394675.2,286047005.7,P
1513394695.0,286047003.4,N
1513394695.9,286047003.4,N
1513394715.7,286047003.3,N
1513394735.6,286047003.6,N
1513394755.4,286047002.7,N
1513394775.2,286046998.1,N
1513394795.1,286047004.4,N
1513394796.0,286047004.4,N
1513394815.8,286046998.6,N
1513394835.6,286047002.2,N
1513394855.5,286046999.7,N
1513394875.3,286046997.0,N
1513394895.1,286046995.5,N
1513394915.9,286046993.8,N
1513394935.7,286046993.6,N
1513394955.5,286046995.6,N
1513394975.3,286046993.6,N
1513394995.2,286046994.0,N
1513395015.0,286047000.0,N
1513395015.9,286047000.0,N
1513395035.7,286046998.9,N
1513395055.6,286046995.2,N
1513395075.4,286046997.6,N
1513395095.2,286046995.3,N
1513395115.1,286046993.8,N
1513395116.0,286046993.8,N
1513395135.8,286046993.9,N
1513395155.6,286046992.8,N
1513395175.5,286046990.5,N
1513395195.3,286046988.7,N
1513395215.1,286046990.3,N
1513395235.9,286046989.6,N
1513395255.7,286046989.7,N
1513395275.5,286046987.2,N
1513395295.3,286046987.8,N
1513395315.2,286046984.7,Y
1513395335.0,286046985.8,P
1513395335.9,286046985.8,P
1513395355.8,286046985.1,P
1513395375.6,286046986.4,Y
1513395395.4,286046996.9,P
1513395415.3,286046995.5,N
1513395435.1,286046999.1,N
1513395436.0,286046999.1,N
1513395455.8,286047002.8,N
1513395475.7,286047000.4,N
1513395495.5,286047002.4,N
1513395515.3,286047001.8,N
1513395535.1,286047001.6,N
1513395555.9,286046996.8,N
1513395575.7,286046996.7,N
1513395595.5,286046998.8,N
1513395615.4,286046998.8,N
1513395635.2,286047000.3,N
1513395655.0,286047001.1,N
1513395655.9,286047001.1,N
1513395675.8,286046998.9,N
1513395695.6,286046996.8,N
1513395715.4,286046995.8,N
1513395735.3,286046997.5,N
1513395755.1,286046995.4,N
1513395756.0,286046995.4,N
1513395775.8,286046996.1,N
1513395795.7,286046996.8,N
1513395815.5,286046995.5,N
1513395835.3,286046997.0,N
1513395855.1,286046999.6,N
1513395875.9,286046996.4,N
1513395895.7,286046991.8,N
1513395915.5,286046993.8,N
1513395935.4,286046995.8,N
1513395955.2,286046993.9,N
1513395975.0,286046997.7,N
1513395975.9,286046997.7,N
1513395995.8,286046999.8,N
1513396015.6,286047000.1,N
1513396035.4,286047004.2,N
1513396055.3,286046998.2,N
1513396075.1,286046997.9,N
1513396076.0,286046997.9,N
1513396095.8,286046998.8,N
1513396115.7,286046996.9,N
1513396135.5,286046993.3,N
1513396155.3,286046995.7,N
1513396175.2,286046994.3,N
1513396195.9,286046997.8,N
1513396215.7,286047001.2,N
1513396235.5,286046996.7,N
1513396255.4,286046996.8,N
1513396275.2,286046994.9,N
1513396295.0,286046997.7,N
1513396295.9,286046997.7,N
1513396315.8,286046997.0,N
1513396335.6,286046996.6,N
1513396355.4,286047000.3,N
1513396375.3,286047002.4,N
1513396395.1,286047002.1,N
1513396415.8,286047004.4,N
1513396435.7,286047004.2,N
1513396455.5,286047000.3,N
1513396475.3,286046996.2,N
1513396495.2,286046994.4,N
1513396515.9,286046991.7,N
1513396535.7,286046994.1,N
1513396555.6,286046991.3,N
1513396575.4,286046992.3,N
1513396595.2,286046990.9,N
1513396615.0,286046991.2,N
1513396616.0,286046991.2,N
1513396635.8,286046988.9,N
1513396655.6,286046988.7,N
1513396675.4,286046989.5,N
1513396695.3,286046985.5,Y
1513396715.1,286046993.0,P
1513396735.8,286046991.1,P
1513396755.7,286046985.7,P
1513396775.5,286046987.7,Y
1513396795.4,286046999.1,P
